Regional Weather Roundup
Issued by NWS

Home | Current Version | Previous Version | Graphics & Text | Print | Product List | Glossary On
Versions: 1 2 3 4 5 6 7 8 9 10 11 12 13 14 15 16 17 18 19 20 21 22 23 24 25 26 27 28 29 30 31 32 33 34 35 36 37 38 39 40 41 42 43 44 45 46 47 48 49 50
000
ASUS43 KLOT 251809
RWRIL

ILLINOIS REGIONAL WEATHER ROUNDUP
NATIONAL WEATHER SERVICE CHICAGO/ROMEOVILLE IL
100 PM CDT THU AUG 25 2016

NOTE: "FAIR" INDICATES FEW OR NO CLOUDS BELOW 12,000 FEET WITH NO
SIGNIFICANT WEATHER AND/OR OBSTRUCTIONS TO VISIBILITY.

* THESE STATIONS ARE NOT UNDER NWS QUALITY CONTROL. THEY ALSO MAY NOT
  REPORT WEATHER SUCH AS PRECIPITATION OR FOG.

ILZ001-002-007-009-015-016-024-251900-
NORTHWEST ILLINOIS

CITY           SKY/WX    TMP DP  RH WIND       PRES   REMARKS
MOLINE         CLOUDY    78  66  66 SW5       30.07S HX  80
6HR MIN TEMP:  72; 6HR MAX TEMP:  79;

STERLING*      CLOUDY    79  67  66 CALM      30.07S HX  81
SAVANNA*       MOSUNNY   78  63  58 W5        30.07S HX  80
$$

ILZ003-004-008-010-011-017-018-251900-
NORTH CENTRAL ILLINOIS

CITY           SKY/WX    TMP DP  RH WIND       PRES   REMARKS
ROCKFORD       CLOUDY    78  65  63 W8        30.08R HX  80
6HR MIN TEMP:  70; 6HR MAX TEMP:  79;

FREEPORT*      CLOUDY    77  65  65 W6        30.10R
ROCHELLE*      PTSUNNY   78  66  66 W6        30.08R HX  80
DE KALB*       CLOUDY    79  68  69 W6        30.08R HX  81
$$

ILZ005-006-012>014-019>023-251900-
NORTHEAST ILLINOIS

CITY           SKY/WX    TMP DP  RH WIND       PRES   REMARKS
CHICAGO-OHARE  PTSUNNY   79  67  66 W5        30.04S HX  81
6HR MIN TEMP:  72; 6HR MAX TEMP:  80;

CHICAGO-MIDWAY CLOUDY    79  69  71 W5        30.04S HX  81
6HR MIN TEMP:  73; 6HR MAX TEMP:  79;

AURORA         MOSUNNY   81  68  64 W3        30.06R HX  84
6HR MIN TEMP:  72; 6HR MAX TEMP:  82;

LANSING*       CLOUDY    77  72  85 NW7       30.05R
JOLIET*        MOSUNNY   80  71  73 W6        30.06S HX  84
WAUKEGAN       MOSUNNY   79  64  60 SW3       30.03F HX  81
6HR MIN TEMP:  69; 6HR MAX TEMP:  81;

DUPAGE AIRPORT MOSUNNY   82  67  60 MISG      30.05R HX  84
6HR MIN TEMP:  71; 6HR MAX TEMP:  82;

KANKAKEE*      CLOUDY    79  71  77 W8        30.07S HX  82
WHEELING       PTSUNNY   81  65  58 NW6       30.04F HX  83
6HR MIN TEMP:  72; 6HR MAX TEMP:  82;

MORRIS*        MOSUNNY   80  71  74 W3        30.04S HX  83
ROMEOVILLE*    PTSUNNY   79  68  70 W6        30.05S HX  81
NORTHERLY ISL    N/A     71  66  84 NE5         N/A
$$

LMZ740>746-251900-
SOUTHERN LAKE MICHIGAN

STATION/POSITION SKY/WX   TEMP    WIND        PRES    VSBY  WAVE
                          AIR SEA DIR/SP/G                  HT/PER
                          (F)     (DEG/KT/KT) (MB)    (MI)  (FT/S)
SOUTHERN BUOY              71 75  330/ 10/ 12 1016.2R         2/ 3
WILMETTE HARBOR            73 65  120/  2/  2   N/A           1
HARRISON CRIB              72     350/  5/  5   N/A
BURNHAM HARBOR             72      CALM  /  7   N/A
CALUMET HARBOR             72     330/  5/  9 1017.0R
BURNS HARBOR               73     340/  8/ 14 1017.6R
MICHIGAN CITY              73     250/ 14/ 16   N/A
MICHIGAN CITY 6N           73 73  280/ 10/ 12   N/A           1/ 3
ST. JOSEPH                 74 75  300/  8/ 10 1016.8R         2/ 4
$$

ILZ025>027-034>036-040-047-049-050-058-095>099-251900-
WEST-CENTRAL ILLINOIS

CITY           SKY/WX    TMP DP  RH WIND       PRES   REMARKS
QUINCY         CLOUDY    80  74  81 VRB3      30.08F HX  85
GALESBURG*     LGT RAIN  77  71  81 SW7       30.10S
MACOMB*        CLOUDY    77  72  84 W5        30.10F
JACKSONVILLE*  MOSUNNY   82  72  70 S3        30.08F HX  87
PITTSFIELD*    MOSUNNY   83  71  66 SW3       30.08F HX  88
$$

ILZ028>032-037-038-041>044-048-051>054-059>061-251900-
CENTRAL ILLINOIS

CITY           SKY/WX    TMP DP  RH WIND       PRES   REMARKS
PONTIAC        PTSUNNY   82  75  78 SW3       30.07S HX  88
BLOOMINGTON    CLOUDY    77  71  82 W10       30.10S
DECATUR        MOSUNNY   85  71  63 VRB6      30.08F HX  90
PEORIA         PTSUNNY   80  74  81 SW9       30.07F HX  85
6HR MIN TEMP:  71; 6HR MAX TEMP:  80;

LACON*         MOSUNNY   80  71  73 SW7       30.06S HX  83
LINCOLN*       PTSUNNY   82  73  72 CALM      30.08F HX  87
SPRINGFIELD    PTSUNNY   85  72  65 W8        30.08F HX  91
6HR MIN TEMP:  68; 6HR MAX TEMP:  86;

TAYLORVILLE    PTSUNNY   82  73  73 SW7       30.09S HX  87
6HR MIN TEMP:  66; 6HR MAX TEMP:  83;

$$

ILZ033-039-045-046-055>057-062-063-251900-
EAST-CENTRAL ILLINOIS

CITY           SKY/WX    TMP DP  RH WIND       PRES   REMARKS
CHAMPAIGN      MOSUNNY   82  70  66 W8        30.09S HX  86
RANTOUL*       MOSUNNY   82  73  74 W9        30.08F HX  87
MATTOON        PTSUNNY   85  69  58 SW7       30.09S HX  89
PARIS*         MOSUNNY   86  72  63 SW6       30.09F HX  91
$$

ILZ079-100>102-251900-
SOUTHWEST ILLINOIS

CITY           SKY/WX    TMP DP  RH WIND       PRES   REMARKS
ALTON          PTSUNNY   84  73  70 NW6       30.08F HX  91
BELLEVILLE     PTSUNNY   91  73  54 W9        30.06F HX  99
CAHOKIA*       PTSUNNY   91  71  51 S6        30.06F HX  97
SPARTA*        SUNNY     87  75  66 SW12      30.10F HX  97
$$

ILZ064>066-069>071-074>076-080>082-084>086-088>090-092>094-251900-
SOUTH-CENTRAL ILLINOIS

CITY           SKY/WX    TMP DP  RH WIND       PRES   REMARKS
CARBONDALE     SUNNY     88  73  61 W8        30.10F HX  95
6HR MIN TEMP:  71; 6HR MAX TEMP:  88;

CAIRO*         SUNNY     89  75  63 SW3       30.10F HX  98
EFFINGHAM*     PTSUNNY   86  75  70 SW5       30.10S HX  94
MARION         MOSUNNY   90  75  62 SW9       30.11F HX 100
MT. VERNON     PTSUNNY   90  73  58 SW9       30.10S HX  98
CENTRALIA*     MOSUNNY   88  77  69 SW9       30.08F HX 100
SALEM*         MOSUNNY   88  76  67 SW9       30.09S HX  99
$$

ILZ067-068-072-073-078-083-087-091-251900-
SOUTHEAST ILLINOIS

CITY           SKY/WX    TMP DP  RH WIND       PRES   REMARKS
LAWRENCEVILLE  MOSUNNY   90  76  63 SW9       30.08F HX 101
FLORA*         PTSUNNY   89  78  69 SW7       30.09S HX 102
FAIRFIELD*     MOSUNNY   87  75  66 SW5       30.08S HX  96
HARRISBURG*    SUNNY     90  76  62 SW8       30.10S HX 101
ROBINSON*      PTSUNNY   87  77  71 W6        30.09S HX  98
CARMI*         SUNNY     90  76  64 W6        30.08F HX 101
$$

ABBREVIATIONS USED IN REMARKS
   TC - TEMPERATURE IN CELSIUS
  WCI - WIND CHILL INDEX
   HX - HEAT INDEX
  VSB - VISIBILITY
$$





USA.gov is the U.S. government's official web portal to all federal, state and local government web resources and services.